GW1129 Weather Reports


time (UTC)temp
F
wind
direction
speed
knots
gust
knots
rain 1hr
in
rain 24hr
in
rain mn
in
humidity
%
barometer
mb
20260504214555 70 184 3.5 10.4 0.00 0.00 0.00 38 1010.4
20260504213102 70 264 5.2 12.2 0.00 0.00 0.00 38 1010.4
20260504211556 70 130 5.2 13.0 0.00 0.00 0.00 38 1010.5
20260504210056 70 139 3.5 10.4 0.00 0.00 0.00 38 1010.6
20260504204557 70 184 6.1 14.8 0.00 0.00 0.00 37 1010.8
20260504203056 70 234 4.3 11.3 0.00 0.00 0.00 37 1010.8
20260504201557 71 125 3.5 10.4 0.00 0.00 0.00 37 1010.9
20260504194606 69 98 4.3 13.0 0.00 0.00 0.00 37 1011.4
20260504193102 70 97 5.2 10.4 0.00 0.00 0.00 36 1011.7
20260504191623 69 255 5.2 12.2 0.00 0.00 0.00 38 1011.8
20260504184606 69 143 4.3 12.2 0.00 0.00 0.00 35 1012.1
20260504183055 69 165 2.6 11.3 0.00 0.00 0.00 38 1012.2
20260504181604 69 92 3.5 12.2 0.00 0.00 0.00 38 1012.2
20260504174559 69 217 2.6 7.8 0.00 0.00 0.00 36 1012.8
20260504173104 68 94 2.6 10.4 0.00 0.00 0.00 38 1012.9
20260504171605 68 211 2.6 10.4 0.00 0.00 0.00 40 1013.0
20260504140106 60 188 1.7 7.0 0.00 0.00 0.00 50 1014.4
20260504081556 42 0 0.0 0.0 0.00 0.00 0.00 77 1015.2
20260504060108 46 0 0.0 0.0 0.00 0.00 0.00 59 1015.3
20260504050113 44 0 0.9 1.7 0.00 0.00 0.00 67 1015.5
20260504044556 43 0 0.0 0.0 0.00 0.00 0.00 74 1015.4
20260504043104 43 0 0.0 0.0 0.00 0.00 0.00 75 1015.4
20260504041600 43 0 0.0 0.0 0.00 0.00 0.00 75 1015.3
20260504040105 43 0 0.0 0.0 0.00 0.00 0.00 76 1015.4
20260504034606 43 0 0.0 0.9 0.00 0.00 0.00 76 1015.1
20260504033100 43 0 0.0 0.0 0.00 0.00 0.00 76 1015.1
20260504031608 43 0 0.0 0.9 0.00 0.00 0.00 75 1014.9
20260504030114 43 0 0.0 0.0 0.00 0.00 0.00 76 1014.8
20260504024556 43 0 0.0 0.0 0.00 0.00 0.00 74 1014.7
20260504023057 43 0 0.0 0.0 0.00 0.00 0.00 74 1014.6
20260504021609 43 0 0.0 0.0 0.00 0.00 0.00 73 1014.8
20260504020056 44 0 0.0 0.0 0.00 0.00 0.00 73 1014.8
20260504014558 45 0 0.0 0.0 0.00 0.00 0.00 69 1014.6
20260504013055 45 0 0.0 0.0 0.00 0.00 0.00 65 1014.7
20260504011556 46 0 0.0 0.0 0.00 0.00 0.00 64 1014.6
20260504010054 47 0 0.0 0.0 0.00 0.00 0.00 63 1014.5
20260504004557 48 0 0.0 0.0 0.00 0.00 0.00 55 1014.3
20260504003055 49 0 0.0 0.0 0.00 0.00 0.00 51 1014.1
20260504001556 51 0 0.0 0.0 0.00 0.00 0.00 45 1014.2
20260504000136 54 0 0.0 0.0 0.00 0.00 0.00 42 1014.2
20260503234554 56 0 0.0 1.7 0.00 0.00 0.00 37 1013.8
20260503233057 57 252 0.9 4.3 0.00 0.00 0.00 34 1013.8
20260503231558 59 222 0.9 7.8 0.00 0.00 0.00 34 1013.6
20260503230058 59 252 1.7 6.1 0.00 0.00 0.00 32 1013.7
20260503224556 59 244 3.5 6.1 0.00 0.00 0.00 31 1013.6
20260503223054 59 240 1.7 8.7 0.00 0.00 0.00 33 1013.4
20260503221554 59 218 5.2 10.4 0.00 0.00 0.00 30 1013.5
20260503220056 59 197 3.5 9.6 0.00 0.00 0.00 32 1013.4